period_start,C,m1,H,J0,J1,J2,J3,J4,J5,JA,JB,JC,JD,JJ,JK,JN,#
2014-11-03 00:03:32,0.13,2.38,0.00,22.84,27.47,30.55,4.77,27.09,1015.17,2030.00,2522.51,2683.09,2900.22,349.76,347.23,15.06,0000 0000 0000 0000 000000
2014-11-03 00:08:34,0.12,2.38,0.00,22.80,27.45,30.53,4.79,27.11,1015.17,2030.01,2521.57,2682.42,2899.56,349.53,346.96,15.09,0000 0000 0000 0000 000000
2014-11-03 00:13:35,0.11,2.39,0.00,22.82,27.45,30.53,4.78,27.16,1015.20,2030.01,2520.47,2681.64,2898.72,350.42,347.65,15.12,0000 0000 0000 0000 000000
2014-11-03 00:18:36,0.09,2.39,0.00,22.81,27.44,30.51,4.85,27.22,1015.45,2030.03,2519.45,2680.95,2897.92,350.21,347.50,15.14,0000 0000 0000 0000 000000
2014-11-03 00:23:38,0.12,2.40,0.00,22.81,27.42,30.48,4.87,27.20,1015.57,2030.02,2518.32,2680.07,2897.05,350.20,347.65,15.17,0000 0000 0000 0000 000000
2014-11-03 00:28:39,0.12,2.40,0.00,22.80,27.42,30.50,4.89,27.25,1015.40,2030.02,2517.28,2679.33,2896.21,350.59,347.99,15.20,0000 0000 0000 0000 000000
2014-11-03 00:33:40,0.14,2.40,0.00,22.78,27.41,30.50,4.78,27.13,1015.26,2030.10,2516.14,2678.64,2895.41,349.22,346.70,15.23,0000 0000 0000 0000 000000
2014-11-03 00:38:41,0.07,2.40,0.00,22.79,27.40,30.49,4.84,27.23,1015.20,2030.06,2515.18,2677.90,2894.64,350.25,347.52,15.26,0000 0000 0000 0000 000000
2014-11-03 00:43:43,0.12,2.41,0.00,22.79,27.40,30.47,4.81,27.13,1015.30,2030.16,2514.18,2677.09,2893.95,350.06,347.49,15.29,0000 0000 0000 0000 000000
2014-11-03 00:48:44,0.14,2.41,0.00,22.77,27.38,30.46,4.77,27.20,1015.59,2030.26,2513.27,2676.49,2893.11,349.91,347.65,15.32,0000 0000 0000 0000 000000
2014-11-03 00:53:45,0.13,2.42,0.00,22.74,27.37,30.47,4.88,27.15,1015.63,2030.47,2512.19,2675.88,2892.29,350.62,348.19,15.35,0000 0000 0000 0000 000000
2014-11-03 00:58:47,0.12,2.42,0.00,22.73,27.37,30.44,4.75,27.16,1015.64,2030.57,2511.24,2675.07,2891.49,349.74,347.52,15.38,0000 0000 0000 0000 000000
2014-11-03 01:03:48,0.15,2.42,0.00,22.74,27.35,30.42,4.79,27.11,1015.64,2030.80,2510.25,2674.30,2890.75,350.58,348.22,15.41,0000 0000 0000 0000 000000
2014-11-03 01:08:49,0.12,2.43,0.00,22.72,27.35,30.43,4.79,27.11,1015.64,2030.91,2509.28,2673.69,2890.00,350.25,347.97,15.44,0000 0000 0000 0000 000000
2014-11-03 01:13:50,0.10,2.43,0.00,22.69,27.35,30.44,4.83,27.17,1015.64,2030.93,2508.18,2672.97,2889.18,350.13,347.71,15.47,0000 0000 0000 0000 000000
2014-11-03 01:18:51,0.12,2.44,0.00,22.69,27.33,30.42,4.72,27.15,1015.64,2030.92,2507.13,2672.13,2888.39,349.65,347.34,15.50,0000 0000 0000 0000 000000
2014-11-03 01:23:52,0.10,2.44,0.00,22.69,27.32,30.42,4.74,27.14,1015.64,2030.98,2506.16,2671.60,2887.84,349.99,347.65,15.52,0000 0000 0000 0000 000000
2014-11-03 01:28:54,0.08,2.44,0.00,22.68,27.32,30.38,4.77,27.11,1015.64,2030.99,2505.21,2670.95,2887.03,349.81,347.26,15.55,0000 0000 0000 0000 000000
2014-11-03 01:33:55,0.12,2.44,0.00,22.67,27.30,30.40,4.81,27.09,1015.64,2030.98,2504.18,2670.10,2886.21,349.99,347.62,15.58,0000 0000 0000 0000 000000
2014-11-03 01:38:57,0.13,2.45,0.00,22.68,27.30,30.38,4.83,27.22,1015.64,2030.97,2503.10,2669.38,2885.41,350.18,348.06,15.61,0000 0000 0000 0000 000000
2014-11-03 01:43:59,0.07,2.45,0.00,22.69,27.30,30.36,4.77,27.12,1015.64,2030.99,2502.11,2668.82,2884.84,350.08,348.04,15.64,0000 0000 0000 0000 000000
2014-11-03 01:49:00,0.11,2.45,0.00,22.67,27.28,30.35,4.76,27.11,1015.66,2030.99,2501.16,2668.04,2884.04,349.87,347.69,15.67,0000 0000 0000 0000 000000
2014-11-03 01:54:01,0.12,2.46,0.00,22.68,27.27,30.34,4.83,27.15,1015.65,2030.99,2500.21,2667.35,2883.28,350.05,347.88,15.70,0000 0000 0000 0000 000000
2014-11-03 01:59:03,0.09,2.46,0.00,22.69,27.27,30.32,4.79,27.18,1015.66,2030.99,2499.29,2666.78,2882.63,350.14,347.79,15.73,0000 0000 0000 0000 000000
2014-11-03 02:04:04,0.08,2.46,0.00,22.70,27.26,30.32,4.76,27.05,1015.66,2031.00,2498.42,2666.05,2882.00,350.09,347.73,15.76,0000 0000 0000 0000 000000
2014-11-03 02:09:06,0.12,2.47,0.00,22.67,27.25,30.31,4.81,27.07,1015.65,2031.00,2497.45,2665.44,2881.16,349.77,347.61,15.79,0000 0000 0000 0000 000000
2014-11-03 02:14:07,0.08,2.47,0.00,22.67,27.25,30.33,4.76,27.15,1015.65,2031.00,2496.57,2664.85,2880.55,349.97,347.49,15.82,0000 0000 0000 0000 000000
2014-11-03 02:19:08,0.09,2.47,0.00,22.70,27.25,30.31,4.79,27.13,1015.66,2031.00,2495.71,2664.05,2879.90,349.94,347.39,15.85,0000 0000 0000 0000 000000
2014-11-03 02:24:09,0.10,2.47,0.00,22.68,27.24,30.26,4.78,27.09,1015.66,2031.00,2494.96,2663.45,2879.09,350.13,348.01,15.88,0000 0000 0000 0000 000000
2014-11-03 02:29:11,0.07,2.48,0.00,22.66,27.22,30.27,4.81,27.18,1015.69,2031.00,2494.08,2662.95,2878.63,349.93,347.63,15.91,0000 0000 0000 0000 000000
2014-11-03 02:34:12,0.11,2.48,0.00,22.67,27.22,30.26,4.76,27.08,1015.75,2031.00,2493.22,2662.12,2877.90,350.02,347.95,15.93,0000 0000 0000 0000 000000
2014-11-03 02:39:13,0.10,2.48,0.00,22.69,27.22,30.24,4.79,27.07,1015.80,2031.01,2492.49,2661.60,2877.08,350.33,347.97,15.96,0000 0000 0000 0000 000000
2014-11-03 02:44:14,0.07,2.49,0.00,22.69,27.22,30.24,4.84,27.09,1016.00,2031.03,2491.75,2661.02,2876.47,350.44,348.15,15.99,0000 0000 0000 0000 000000
2014-11-03 02:49:15,0.09,2.49,0.00,22.67,27.22,30.22,4.85,27.14,1016.11,2031.01,2490.81,2660.44,2875.92,350.48,348.44,16.02,0000 0000 0000 0000 000000
2014-11-03 02:54:17,0.09,2.49,0.00,22.69,27.21,30.21,4.79,27.01,1016.08,2031.02,2489.89,2659.81,2875.07,350.14,348.38,16.05,0000 0000 0000 0000 000000
2014-11-03 02:59:17,0.09,2.49,0.00,22.69,27.20,30.23,4.68,27.05,1016.01,2031.03,2489.05,2659.07,2874.46,349.68,347.16,16.08,0000 0000 0000 0000 000000
2014-11-03 03:04:19,0.10,2.50,0.00,22.68,27.20,30.18,4.80,27.04,1015.72,2031.04,2488.28,2658.60,2873.79,350.24,348.04,16.11,0000 0000 0000 0000 000000
2014-11-03 03:09:20,0.07,2.50,0.00,22.69,27.20,30.24,4.77,27.18,1015.66,2031.01,2487.49,2657.98,2873.03,349.73,347.45,16.14,0000 0000 0000 0000 000000
2014-11-03 03:14:21,0.12,2.50,0.00,22.69,27.20,30.17,4.80,27.19,1015.65,2031.02,2486.53,2657.16,2872.33,350.48,348.11,16.17,0000 0000 0000 0000 000000
2014-11-03 03:19:23,0.07,2.50,0.00,22.67,27.20,30.16,4.76,27.25,1015.69,2031.01,2485.71,2656.75,2871.80,349.82,347.67,16.20,0000 0000 0000 0000 000000
2014-11-03 03:24:24,0.07,2.51,0.00,22.67,27.20,30.20,4.78,27.15,1015.77,2031.03,2484.95,2656.04,2871.05,349.71,347.59,16.23,0000 0000 0000 0000 000000
2014-11-03 03:29:25,0.10,2.51,0.00,22.68,27.20,30.16,4.75,27.02,1016.04,2031.03,2484.08,2655.61,2870.43,349.92,347.90,16.26,0000 0000 0000 0000 000000
2014-11-03 03:34:27,0.06,2.51,0.00,22.71,27.20,30.18,4.81,27.03,1016.12,2031.02,2483.25,2654.96,2869.90,350.16,348.10,16.29,0000 0000 0000 0000 000000
2014-11-03 03:39:28,0.12,2.52,0.00,22.71,27.19,30.13,4.83,27.18,1016.13,2031.01,2482.29,2654.15,2869.07,349.91,347.95,16.32,0000 0000 0000 0000 000000
2014-11-03 03:44:29,0.05,2.52,0.00,22.70,27.18,30.17,4.86,27.02,1016.13,2031.03,2481.70,2653.92,2868.56,350.32,348.22,16.35,0000 0000 0000 0000 000000
2014-11-03 03:49:31,0.09,2.52,0.00,22.70,27.19,30.13,4.73,27.03,1016.13,2031.06,2481.02,2653.12,2868.01,349.52,347.51,16.37,0000 0000 0000 0000 000000
2014-11-03 03:54:32,0.10,2.52,0.00,22.73,27.20,30.15,4.68,26.99,1016.14,2031.04,2480.25,2652.73,2867.27,349.90,347.71,16.40,0000 0000 0000 0000 000000
2014-11-03 03:59:34,0.09,2.53,0.00,22.75,27.20,30.16,4.87,27.12,1016.14,2031.02,2479.45,2652.01,2866.62,350.44,348.25,16.43,0000 0000 0000 0000 000000
2014-11-03 04:04:35,0.12,2.53,0.00,22.75,27.22,30.20,4.82,27.13,1016.16,2031.01,2478.42,2651.20,2865.86,350.33,348.34,16.46,0000 0000 0000 0000 000000
2014-11-03 04:09:36,0.10,2.53,0.00,22.78,27.22,30.21,4.70,27.06,1016.17,2031.00,2477.58,2650.57,2865.05,349.54,347.34,16.49,0000 0000 0000 0000 000000
2014-11-03 04:14:37,0.07,2.54,0.00,22.78,27.23,30.19,4.80,27.16,1016.15,2031.00,2476.78,2649.99,2864.23,349.77,347.68,16.52,0000 0000 0000 0000 000000
2014-11-03 04:19:38,0.10,2.54,0.00,22.80,27.24,30.20,4.69,27.14,1016.17,2031.00,2475.85,2649.24,2863.83,349.07,346.85,16.55,0000 0000 0000 0000 000000
2014-11-03 04:24:40,0.06,2.54,0.00,22.81,27.25,30.21,4.77,27.18,1016.18,2031.00,2475.03,2648.89,2863.08,349.88,347.35,16.58,0000 0000 0000 0000 000000
2014-11-03 04:29:41,0.12,2.54,0.00,22.77,27.25,30.26,4.82,27.05,1016.25,2031.00,2474.25,2648.09,2862.50,349.49,347.22,16.61,0000 0000 0000 0000 000000
2014-11-03 04:34:43,0.09,2.55,0.00,22.77,27.25,30.25,4.80,27.16,1016.17,2031.00,2473.42,2647.64,2861.92,350.55,348.25,16.64,0000 0000 0000 0000 000000
2014-11-03 04:39:44,0.08,2.55,0.00,22.75,27.26,30.26,4.84,27.32,1016.14,2031.00,2472.59,2647.01,2861.13,350.02,347.92,16.67,0000 0000 0000 0000 000000
2014-11-03 04:44:45,0.08,2.55,0.00,22.73,27.27,30.27,4.84,27.10,1016.24,2031.00,2471.96,2646.44,2860.64,350.47,348.49,16.70,0000 0000 0000 0000 000000
2014-11-03 04:49:46,0.06,2.55,0.00,22.72,27.27,30.28,4.87,27.11,1016.28,2031.00,2471.13,2645.98,2860.00,350.09,347.77,16.73,0000 0000 0000 0000 000000
2014-11-03 04:54:47,0.12,2.56,0.00,22.71,27.27,30.31,4.94,27.11,1016.40,2031.00,2470.34,2645.24,2859.31,350.44,348.66,16.76,0000 0000 0000 0000 000000
2014-11-03 04:59:48,0.04,2.56,0.00,22.72,27.27,30.30,4.75,26.98,1016.59,2031.00,2469.71,2644.95,2858.84,349.85,347.88,16.78,0000 0000 0000 0000 000000
2014-11-03 05:04:50,0.09,2.56,0.00,22.70,27.27,30.30,4.78,27.08,1016.60,2031.00,2468.99,2644.15,2858.07,350.14,347.93,16.81,0000 0000 0000 0000 000000
2014-11-03 05:09:51,0.09,2.56,0.00,22.70,27.26,30.30,4.96,27.12,1016.62,2030.99,2468.17,2643.76,2857.43,350.74,348.45,16.84,0000 0000 0000 0000 000000
2014-11-03 05:14:52,0.08,2.57,0.00,22.70,27.25,30.30,4.83,27.02,1016.62,2030.99,2467.34,2643.04,2856.88,350.25,348.31,16.87,0000 0000 0000 0000 000000
2014-11-03 05:19:54,0.10,2.57,0.00,22.72,27.25,30.31,4.78,27.05,1016.62,2030.99,2466.69,2642.60,2856.09,349.40,347.46,16.90,0000 0000 0000 0000 000000
2014-11-03 05:24:55,0.07,2.57,0.00,22.68,27.25,30.32,4.69,27.01,1016.62,2030.99,2465.80,2641.96,2855.66,349.43,347.63,16.93,0000 0000 0000 0000 000000
2014-11-03 05:29:56,0.09,2.58,0.00,22.67,27.25,30.29,4.81,27.13,1016.62,2030.99,2465.01,2641.16,2854.96,350.15,348.18,16.96,0000 0000 0000 0000 000000
2014-11-03 05:34:57,0.08,2.58,0.00,22.67,27.25,30.31,4.79,27.21,1016.62,2030.99,2464.15,2640.89,2854.16,349.71,347.87,16.99,0000 0000 0000 0000 000000
2014-11-03 05:39:58,0.11,2.58,0.00,22.69,27.24,30.30,4.74,27.11,1016.61,2030.99,2463.36,2640.10,2853.62,349.96,347.98,17.02,0000 0000 0000 0000 000000
2014-11-03 05:45:00,0.08,2.58,0.00,22.68,27.23,30.28,4.82,27.27,1016.62,2030.99,2462.49,2639.71,2853.02,350.09,348.12,17.05,0000 0000 0000 0000 000000
2014-11-03 05:50:01,0.10,2.59,0.00,22.65,27.22,30.30,4.84,27.21,1016.64,2031.00,2461.53,2639.00,2852.31,349.77,347.65,17.08,0000 0000 0000 0000 000000
2014-11-03 05:55:02,0.09,2.59,0.00,22.64,27.22,30.28,4.78,27.22,1016.66,2031.00,2460.81,2638.34,2851.72,349.93,348.14,17.11,0000 0000 0000 0000 000000
2014-11-03 06:00:03,0.07,2.59,0.00,22.63,27.22,30.29,4.82,27.17,1016.82,2031.00,2459.86,2637.81,2851.01,350.12,348.19,17.14,0000 0000 0000 0000 000000
2014-11-03 06:05:04,0.10,2.59,0.00,22.62,27.21,30.27,4.81,27.18,1016.79,2031.00,2459.00,2637.04,2850.18,349.75,347.83,17.17,0000 0000 0000 0000 000000
2014-11-03 06:10:05,0.09,2.60,0.00,22.62,27.20,30.29,4.79,27.12,1016.84,2031.01,2458.12,2636.60,2849.82,349.59,347.67,17.19,0000 0000 0000 0000 000000
2014-11-03 06:15:07,0.08,2.60,0.00,22.63,27.20,30.27,4.84,27.11,1016.77,2031.01,2457.33,2635.99,2849.03,350.09,348.41,17.22,0000 0000 0000 0000 000000
2014-11-03 06:20:08,0.13,2.60,0.00,22.62,27.20,30.28,4.77,27.09,1016.75,2031.01,2456.40,2635.19,2848.24,350.03,347.93,17.25,0000 0000 0000 0000 000000
2014-11-03 06:25:09,0.07,2.60,0.00,22.60,27.19,30.24,4.86,27.18,1016.87,2031.01,2455.70,2634.81,2847.71,350.47,348.72,17.28,0000 0000 0000 0000 000000
2014-11-03 06:30:10,0.08,2.61,0.00,22.61,27.17,30.26,4.77,27.22,1017.04,2031.02,2454.89,2634.05,2847.01,349.72,348.05,17.31,0000 0000 0000 0000 000000
2014-11-03 06:35:12,0.11,2.61,0.00,22.60,27.17,30.26,4.80,27.18,1017.09,2031.02,2454.03,2633.52,2846.18,349.54,347.90,17.34,0000 0000 0000 0000 000000
2014-11-03 06:40:13,0.08,2.61,0.00,22.61,27.17,30.27,4.90,27.28,1017.06,2031.04,2453.08,2633.00,2845.72,350.27,348.75,17.37,0000 0000 0000 0000 000000
2014-11-03 06:45:14,0.12,2.62,0.00,22.57,27.15,30.26,4.79,27.23,1016.96,2031.07,2452.18,2632.27,2845.04,350.23,348.56,17.40,0000 0000 0000 0000 000000
2014-11-03 06:50:16,0.08,2.62,0.00,22.58,27.15,30.23,4.81,27.18,1017.08,2031.09,2451.43,2631.90,2844.38,350.24,348.48,17.43,0000 0000 0000 0000 000000
2014-11-03 06:55:16,0.08,2.62,0.00,22.58,27.15,30.20,4.86,27.21,1017.10,2031.08,2450.63,2631.10,2843.84,349.98,348.43,17.46,0000 0000 0000 0000 000000
2014-11-03 07:00:18,0.10,2.63,0.00,22.59,27.15,30.21,4.82,27.10,1017.10,2031.14,2449.86,2630.65,2843.08,350.22,348.70,17.49,0000 0000 0000 0000 000000
2014-11-03 07:05:19,0.12,2.63,0.00,22.58,27.13,30.21,4.87,27.08,1017.10,2031.29,2449.01,2630.01,2842.49,350.63,348.87,17.52,0000 0000 0000 0000 000000
2014-11-03 07:10:21,0.08,2.63,0.00,22.56,27.12,30.16,4.73,27.03,1017.10,2031.23,2448.17,2629.44,2841.87,349.34,347.95,17.55,0000 0000 0000 0000 000000
2014-11-03 07:15:22,0.12,2.64,0.00,22.54,27.12,30.19,4.85,27.10,1017.11,2031.37,2447.36,2628.88,2841.06,350.06,348.46,17.58,0000 0000 0000 0000 000000
2014-11-03 07:20:23,0.12,2.64,0.00,22.54,27.12,30.19,4.74,27.18,1017.11,2031.39,2446.47,2628.06,2840.39,349.44,347.73,17.60,0000 0000 0000 0000 000000
2014-11-03 07:25:25,0.11,2.64,0.00,22.55,27.10,30.17,4.83,27.21,1017.11,2031.49,2445.47,2627.55,2839.87,350.28,348.55,17.63,0000 0000 0000 0000 000000
2014-11-03 07:30:26,0.11,2.64,0.00,22.51,27.10,30.16,4.85,27.12,1017.11,2031.53,2444.48,2626.98,2839.06,350.34,348.43,17.66,0000 0000 0000 0000 000000
2014-11-03 07:35:27,0.15,2.65,0.00,22.49,27.10,30.18,4.80,27.12,1017.15,2031.76,2443.71,2626.24,2838.44,349.76,348.27,17.69,0000 0000 0000 0000 000000
2014-11-03 07:40:28,0.10,2.65,0.00,22.49,27.09,30.18,4.76,27.24,1017.22,2031.89,2442.68,2625.73,2837.89,349.66,348.12,17.72,0000 0000 0000 0000 000000
2014-11-03 07:45:30,0.09,2.66,0.00,22.49,27.07,30.17,4.82,27.18,1017.25,2031.94,2441.85,2625.04,2837.07,350.13,348.78,17.75,0000 0000 0000 0000 000000
2014-11-03 07:50:31,0.11,2.66,0.00,22.49,27.07,30.17,4.81,27.21,1017.31,2031.93,2440.91,2624.41,2836.34,350.19,348.69,17.78,0000 0000 0000 0000 000000
2014-11-03 07:55:32,0.10,2.66,0.00,22.48,27.07,30.16,4.81,27.28,1017.49,2031.94,2439.92,2623.78,2835.64,350.08,348.61,17.81,0000 0000 0000 0000 000000
2014-11-03 08:00:33,0.09,2.67,0.00,22.45,27.06,30.14,4.91,27.30,1017.57,2031.97,2439.03,2623.03,2834.98,349.71,348.38,17.84,0000 0000 0000 0000 000000
2014-11-03 08:05:34,0.11,2.67,0.00,22.44,27.05,30.15,4.73,27.07,1017.59,2031.98,2438.16,2622.64,2834.18,349.55,348.14,17.87,0000 0000 0000 0000 000000
2014-11-03 08:10:36,0.09,2.67,0.00,22.43,27.05,30.14,4.85,27.24,1017.59,2031.99,2437.15,2622.00,2833.48,350.12,349.10,17.90,0000 0000 0000 0000 000000
2014-11-03 08:15:37,0.10,2.67,0.00,22.43,27.04,30.14,4.87,27.22,1017.59,2031.99,2436.26,2621.30,2832.92,350.08,348.91,17.93,0000 0000 0000 0000 000000
2014-11-03 08:20:38,0.09,2.68,0.00,22.41,27.02,30.13,4.91,27.19,1017.59,2031.99,2435.43,2620.79,2832.11,350.43,348.89,17.96,0000 0000 0000 0000 000000
2014-11-03 08:25:39,0.10,2.68,0.00,22.41,27.02,30.11,4.80,27.09,1017.60,2031.99,2434.64,2620.03,2831.29,349.96,348.90,17.99,0000 0000 0000 0000 000000
2014-11-03 08:30:40,0.09,2.68,0.00,22.41,27.02,30.11,4.80,27.21,1017.62,2031.99,2433.79,2619.49,2830.79,349.91,348.64,18.01,0000 0000 0000 0000 000000
2014-11-03 08:35:41,0.06,2.69,0.00,22.42,27.00,30.12,4.92,27.22,1017.64,2031.99,2432.92,2618.94,2830.02,350.60,349.49,18.04,0000 0000 0000 0000 000000
2014-11-03 08:40:42,0.13,2.69,0.00,22.40,27.00,30.11,4.83,27.23,1017.85,2031.98,2432.04,2618.11,2829.20,349.86,348.47,18.07,0000 0000 0000 0000 000000
2014-11-03 08:45:43,0.09,2.69,0.00,22.39,26.99,30.08,4.85,27.21,1018.03,2031.99,2431.19,2617.71,2828.77,350.37,349.19,18.10,0000 0000 0000 0000 000000
2014-11-03 08:50:45,0.09,2.69,0.00,22.38,26.97,30.07,4.91,27.16,1018.04,2031.99,2430.32,2617.02,2828.02,350.63,349.42,18.13,0000 0000 0000 0000 000000
2014-11-03 08:55:46,0.12,2.70,0.00,22.39,26.97,30.08,4.87,27.13,1018.06,2031.99,2429.46,2616.40,2827.32,350.39,349.25,18.16,0000 0000 0000 0000 000000
2014-11-03 09:00:48,0.04,2.70,0.00,22.39,26.97,30.05,4.83,27.15,1018.07,2031.99,2428.76,2615.99,2826.95,350.05,349.14,18.19,0000 0000 0000 0000 000000
2014-11-03 09:05:49,0.12,2.70,0.00,22.39,26.96,30.03,4.82,27.11,1018.08,2031.99,2427.91,2615.38,2826.13,350.44,349.43,18.22,0000 0000 0000 0000 000000
2014-11-03 09:10:50,0.08,2.70,0.00,22.36,26.95,30.04,4.84,27.11,1018.08,2031.99,2427.05,2614.85,2825.53,350.18,349.14,18.25,0000 0000 0000 0000 000000
2014-11-03 09:15:51,0.09,2.71,0.00,22.35,26.95,30.02,4.80,26.98,1018.08,2031.99,2426.32,2614.06,2824.93,350.15,349.10,18.28,0000 0000 0000 0000 000000
2014-11-03 09:20:52,0.11,2.71,0.00,22.36,26.94,30.03,4.88,27.04,1018.08,2031.99,2425.51,2613.61,2824.12,350.39,349.31,18.31,0000 0000 0000 0000 000000
2014-11-03 09:25:54,0.07,2.71,0.00,22.35,26.93,30.03,4.72,26.99,1018.08,2031.99,2424.68,2613.01,2823.61,349.87,348.87,18.34,0000 0000 0000 0000 000000
2014-11-03 09:30:55,0.09,2.72,0.00,22.31,26.92,30.00,4.81,27.13,1018.08,2031.99,2423.84,2612.48,2823.00,349.35,348.14,18.37,0000 0000 0000 0000 000000
2014-11-03 09:35:57,0.08,2.72,0.00,22.31,26.92,29.99,4.73,27.00,1018.09,2032.00,2422.93,2611.96,2822.24,349.73,348.46,18.40,0000 0000 0000 0000 000000
2014-11-03 09:40:58,0.11,2.72,0.00,22.31,26.90,29.95,4.74,27.11,1018.10,2032.00,2422.04,2611.10,2821.77,349.64,348.72,18.42,0000 0000 0000 0000 000000
2014-11-03 09:45:59,0.07,2.72,0.00,22.30,26.90,29.96,4.81,26.99,1018.10,2032.03,2421.23,2610.96,2821.07,349.99,348.84,18.45,0000 0000 0000 0000 000000
2014-11-03 09:51:00,0.11,2.73,0.00,22.29,26.90,29.97,4.71,27.00,1018.12,2032.08,2420.58,2610.17,2820.70,349.63,348.68,18.48,0000 0000 0000 0000 000000
2014-11-03 09:56:01,0.03,2.73,0.00,22.27,26.89,29.98,4.79,27.17,1018.19,2032.05,2419.94,2609.88,2820.02,350.02,349.25,18.51,0000 0000 0000 0000 000000
2014-11-03 10:01:02,0.12,2.73,0.00,22.28,26.87,29.99,4.77,27.07,1018.28,2032.06,2419.11,2609.09,2819.30,349.62,348.60,18.54,0000 0000 0000 0000 000000
2014-11-03 10:06:03,0.08,2.73,0.00,22.30,26.87,29.95,4.76,27.13,1018.20,2032.18,2418.27,2608.85,2818.95,350.06,348.96,18.57,0000 0000 0000 0000 000000
2014-11-03 10:11:05,0.11,2.74,0.00,22.27,26.87,29.95,4.84,27.13,1018.34,2032.20,2417.71,2608.06,2818.15,350.31,349.36,18.60,0000 0000 0000 0000 000000
2014-11-03 10:16:06,0.07,2.74,0.00,22.25,26.86,29.94,4.87,27.15,1018.38,2032.29,2417.01,2607.88,2817.78,350.25,349.17,18.63,0000 0000 0000 0000 000000
2014-11-03 10:21:08,0.13,2.74,0.00,22.25,26.85,29.94,4.76,27.00,1018.30,2032.58,2416.21,2607.14,2817.08,350.01,349.10,18.66,0000 0000 0000 0000 000000
2014-11-03 10:26:09,0.09,2.75,0.00,22.26,26.85,29.93,4.81,27.12,1018.31,2032.60,2415.56,2606.86,2816.68,350.05,349.19,18.69,0000 0000 0000 0000 000000
2014-11-03 10:31:10,0.08,2.75,0.00,22.25,26.85,29.93,4.84,27.05,1018.43,2032.51,2414.89,2606.07,2816.02,350.12,349.26,18.72,0000 0000 0000 0000 000000
2014-11-03 10:36:11,0.08,2.75,0.00,22.22,26.83,29.92,4.83,27.04,1018.49,2032.67,2414.02,2605.82,2815.66,350.01,349.21,18.75,0000 0000 0000 0000 000000
2014-11-03 10:41:13,0.06,2.75,0.00,22.22,26.82,29.90,4.79,27.05,1018.53,2032.41,2413.10,2605.05,2815.00,349.29,348.54,18.78,0000 0000 0000 0000 000000
2014-11-03 10:46:14,0.12,2.76,0.00,22.24,26.82,29.88,4.92,27.07,1018.53,2032.60,2412.56,2604.74,2814.37,350.70,350.03,18.81,0000 0000 0000 0000 000000
2014-11-03 10:51:15,0.08,2.76,0.00,22.25,26.82,29.87,4.88,27.07,1018.51,2032.72,2411.95,2604.06,2813.99,350.21,349.58,18.83,0000 0000 0000 0000 000000
2014-11-03 10:56:16,0.08,2.76,0.00,22.23,26.81,29.86,4.87,27.13,1018.47,2032.78,2411.14,2603.84,2813.34,349.86,348.65,18.86,0000 0000 0000 0000 000000
2014-11-03 11:01:18,0.09,2.76,0.00,22.22,26.80,29.88,4.78,27.07,1018.50,2032.85,2410.78,2603.09,2812.92,349.62,349.19,18.89,0000 0000 0000 0000 000000
2014-11-03 11:06:19,0.06,2.77,0.00,22.22,26.80,29.85,4.72,27.07,1018.55,2032.83,2410.02,2602.92,2812.13,349.16,348.69,18.92,0000 0000 0000 0000 000000
2014-11-03 11:11:20,0.09,2.77,0.00,22.22,26.80,29.83,4.68,26.98,1018.56,2032.85,2409.17,2602.13,2811.87,349.36,348.67,18.95,0000 0000 0000 0000 000000
2014-11-03 11:16:21,0.05,2.77,0.00,22.21,26.79,29.83,4.90,27.12,1018.57,2032.78,2408.43,2601.87,2811.07,350.55,349.81,18.98,0000 0000 0000 0000 000000
2014-11-03 11:21:22,0.11,2.77,0.00,22.18,26.77,29.84,4.86,27.18,1018.54,2032.91,2408.00,2601.24,2810.73,350.33,349.63,19.01,0000 0000 0000 0000 000000
2014-11-03 11:26:23,0.04,2.78,0.00,22.18,26.77,29.83,4.76,27.11,1018.51,2032.90,2407.60,2600.98,2810.02,349.69,349.28,19.04,0000 0000 0000 0000 000000
2014-11-03 11:31:24,0.11,2.78,0.00,22.19,26.77,29.85,4.75,27.09,1018.56,2032.83,2406.71,2600.27,2809.46,349.47,348.78,19.07,0000 0000 0000 0000 000000
2014-11-03 11:36:26,0.05,2.78,0.00,22.18,26.75,29.86,4.86,27.18,1018.56,2032.94,2406.01,2599.99,2808.99,350.06,349.25,19.10,0000 0000 0000 0000 000000
2014-11-03 11:41:27,0.11,2.78,0.00,22.18,26.75,29.84,4.82,27.11,1018.57,2032.97,2405.38,2599.41,2808.22,349.72,348.86,19.13,0000 0000 0000 0000 000000
2014-11-03 11:46:28,0.05,2.79,0.00,22.17,26.75,29.84,4.84,27.24,1018.57,2032.96,2404.43,2599.01,2808.00,350.18,349.33,19.16,0000 0000 0000 0000 000000
2014-11-03 11:51:29,0.11,2.79,0.00,22.16,26.73,29.80,4.81,27.19,1018.55,2032.98,2403.76,2598.42,2807.64,350.19,349.46,19.19,0000 0000 0000 0000 000000
2014-11-03 11:56:30,0.04,2.79,0.00,22.15,26.72,29.80,4.74,27.14,1018.51,2032.99,2403.02,2598.01,2807.02,349.73,349.07,19.22,0000 0000 0000 0000 000000
2014-11-03 12:01:31,0.12,2.79,0.00,22.15,26.72,29.77,4.69,27.16,1018.55,2032.99,2402.44,2597.53,2806.36,349.31,348.67,19.25,0000 0000 0000 0000 000000
2014-11-03 12:06:32,0.04,2.80,0.00,22.13,26.71,29.79,4.77,27.14,1018.54,2032.99,2401.73,2597.00,2805.96,350.09,349.27,19.27,0000 0000 0000 0000 000000
2014-11-03 12:11:34,0.10,2.80,0.00,22.11,26.70,29.79,4.87,27.23,1018.53,2032.99,2400.95,2596.38,2805.18,350.12,349.39,19.30,0000 0000 0000 0000 000000
2014-11-03 12:16:35,0.05,2.80,0.00,22.11,26.70,29.81,4.81,27.18,1018.55,2032.99,2400.10,2595.99,2804.83,349.71,349.17,19.33,0000 0000 0000 0000 000000
2014-11-03 12:21:37,0.12,2.80,0.00,22.11,26.69,29.79,4.88,27.25,1018.57,2032.99,2399.46,2595.36,2804.06,350.35,349.91,19.36,0000 0000 0000 0000 000000
2014-11-03 12:26:38,0.05,2.80,0.00,22.11,26.67,29.79,4.79,27.20,1018.57,2032.99,2398.69,2594.99,2803.71,350.04,349.66,19.39,0000 0000 0000 0000 000000
2014-11-03 12:31:39,0.08,2.81,0.00,22.09,26.67,29.79,4.81,27.27,1018.57,2032.99,2398.01,2594.39,2803.03,349.81,349.38,19.42,0000 0000 0000 0000 000000
2014-11-03 12:36:40,0.07,2.81,0.00,22.06,26.66,29.78,4.83,27.19,1018.51,2033.01,2397.24,2594.00,2802.67,350.15,349.76,19.45,0000 0000 0000 0000 000000
2014-11-03 12:41:42,0.09,2.81,0.00,22.05,26.65,29.76,4.87,27.28,1018.52,2033.00,2396.63,2593.37,2802.01,350.19,349.74,19.48,0000 0000 0000 0000 000000
2014-11-03 12:46:43,0.05,2.81,0.00,22.06,26.65,29.77,4.83,27.27,1018.57,2033.01,2395.94,2593.00,2801.46,349.63,349.04,19.51,0000 0000 0000 0000 000000
2014-11-03 12:51:44,0.10,2.82,0.00,22.07,26.64,29.74,4.86,27.24,1018.57,2033.02,2395.11,2592.52,2801.00,349.99,349.46,19.54,0000 0000 0000 0000 000000
2014-11-03 12:56:45,0.08,2.82,0.00,22.03,26.62,29.72,4.89,27.27,1018.56,2033.02,2394.29,2592.00,2800.31,350.59,350.04,19.57,0000 0000 0000 0000 000000
2014-11-03 13:01:47,0.09,2.82,0.00,22.03,26.62,29.73,4.85,27.33,1018.56,2033.03,2393.61,2591.28,2799.96,350.06,349.33,19.60,0000 0000 0000 0000 000000